Location: LDNL
(36.4545°S, 141.6685°E)
Time: 12:45:30
(UTC+10:00)

A-11 Canister half - Pass Details

Date: 17 August 2022
Orbit: 1524 x 1684 km, 47.3° (Epoch: 26 September)

Event Time Altitude Azimuth Distance (km) Brightness Sun altitude
Rises 19:29:32 0° 255° (WSW) 4,698 12.9 -18.3°
Reaches altitude 10° 19:32:50 10° 248° (WSW) 3,710 12.0 -18.9°
Maximum altitude 19:41:37 43° 177° (S) 2,049 9.6 -20.7°
Enters shadow 19:46:33 26° 123° (ESE) 2,695 9.8 -21.7°
Drops below altitude 10° 19:50:29 10° 107° (ESE) 3,739 - -22.5°
Sets 19:53:50 0° 100° (E) 4,738 - -23.2°
